EW5010 Weather Reports


time (UTC)temp
C
wind
direction
speed
KPH
gust
KPH
rain 1hr
cm
rain 24hr
cm
rain mn
cm
humidity
%
barometer
mb
20260505194004 27 182 6.4 16.1 0.00 0.00 0.00 71 1004.5
20260505193502 27 147 12.9 20.9 0.00 0.00 0.00 72 1004.2
20260505192959 26 174 8.0 16.1 0.00 0.00 0.00 74 1004.3
20260505192457 26 148 14.5 19.3 0.00 0.00 0.00 74 1004.3
20260505191954 26 155 8.0 20.9 0.00 0.00 0.00 75 1004.5
20260505191453 26 145 12.9 20.9 0.00 0.00 0.00 76 1004.5
20260505190950 26 147 16.1 20.9 0.00 0.00 0.00 74 1004.7
20260505190444 26 149 8.0 14.5 0.00 0.00 0.00 74 1004.6
20260505185940 26 155 16.1 19.3 0.00 0.00 0.00 74 1004.6
20260505185438 26 146 9.7 9.7 0.00 0.00 0.00 73 1004.8
20260505184934 26 177 4.8 12.9 0.00 0.00 0.00 74 1004.7
20260505184431 26 161 4.8 16.1 0.00 0.00 0.00 75 1004.8
20260505183927 26 158 8.0 14.5 0.00 0.00 0.00 75 1004.8
20260505183425 26 156 9.7 17.7 0.00 0.00 0.00 75 1004.7
20260505182921 26 151 11.3 17.7 0.00 0.00 0.00 73 1004.9
20260505182418 26 166 9.7 16.1 0.00 0.00 0.00 74 1004.8
20260505181914 26 149 12.9 14.5 0.00 0.00 0.00 72 1005.1
20260505181412 26 160 9.7 17.7 0.00 0.00 0.00 72 1005.0
20260505180908 26 157 3.2 14.5 0.00 0.00 0.00 72 1005.1
20260505180405 26 151 8.0 17.7 0.00 0.00 0.00 72 1004.9
20260505175902 26 156 4.8 19.3 0.00 0.00 0.00 72 1004.8
20260505175358 27 159 9.7 17.7 0.00 0.00 0.00 70 1004.8
20260505174854 27 198 8.0 12.9 0.00 0.00 0.00 72 1005.1
20260505174352 26 139 8.0 9.7 0.00 0.00 0.00 72 1005.1
20260505173848 26 180 6.4 16.1 0.00 0.00 0.00 74 1005.0
20260505173344 26 144 12.9 17.7 0.00 0.00 0.00 75 1005.0
20260505172842 26 151 6.4 14.5 0.00 0.00 0.00 74 1004.9
20260505172339 26 151 4.8 16.1 0.00 0.00 0.00 74 1005.0
20260505171839 26 155 11.3 14.5 0.00 0.00 0.00 75 1005.0
20260505171336 25 174 4.8 12.9 0.00 0.00 0.00 75 1005.1
20260505170832 26 154 12.9 17.7 0.00 0.00 0.00 73 1004.9
20260505170329 26 159 8.0 20.9 0.00 0.00 0.00 74 1005.1
20260505165825 26 194 3.2 14.5 0.00 0.00 0.00 74 1005.4
20260505165320 25 146 6.4 14.5 0.00 0.00 0.00 74 1005.2
20260505164816 25 179 3.2 17.7 0.00 0.00 0.00 75 1005.0
20260505164313 26 200 11.3 20.9 0.00 0.00 0.00 73 1005.2
20260505163812 25 180 9.7 22.5 0.00 0.00 0.00 75 1005.2
20260505163310 25 167 6.4 17.7 0.00 0.00 0.00 75 1005.1
20260505162808 25 147 11.3 19.3 0.00 0.00 0.00 74 1005.1
20260505162306 25 154 11.3 14.5 0.00 0.00 0.00 75 1004.8
20260505161801 25 164 9.7 16.1 0.00 0.00 0.00 76 1004.8
20260505161258 25 160 9.7 16.1 0.00 0.00 0.00 77 1004.7
20260505160755 25 169 14.5 20.9 0.00 0.00 0.00 77 1004.9
20260505160253 24 157 11.3 16.1 0.00 0.00 0.00 78 1004.7
20260505153232 24 179 3.2 12.9 0.00 0.00 0.00 79 1004.9
20260505152729 24 148 14.5 17.7 0.00 0.00 0.00 79 1005.1
20260505152226 23 161 4.8 17.7 0.00 0.00 0.00 80 1005.1
20260505151725 23 189 8.0 9.7 0.00 0.00 0.00 80 1005.3
20260505151223 23 158 6.4 17.7 0.00 0.00 0.00 80 1005.0
20260505150719 23 202 12.9 17.7 0.00 0.00 0.00 81 1005.0
20260505150217 23 182 9.7 14.5 0.00 0.00 0.00 80 1005.1
20260505140650 22 154 16.1 17.7 0.00 0.00 0.00 84 1004.9
20260505140147 22 154 4.8 20.9 0.00 0.00 0.00 84 1004.7
20260505130112 22 163 11.3 22.5 0.00 0.00 0.00 85 1004.6
20260505124601 22 197 11.3 17.7 0.00 0.00 0.00 85 1004.7
20260505124057 22 172 11.3 16.1 0.00 0.00 0.00 85 1004.3
20260505123553 22 154 12.9 17.7 0.00 0.00 0.00 85 1004.2
20260505123050 22 176 8.0 17.7 0.00 0.00 0.00 85 1004.1
20260505122547 22 173 6.4 22.5 0.00 0.00 0.00 84 1004.2
20260505122044 22 143 3.2 14.5 0.00 0.00 0.00 85 1004.3
20260505121540 22 164 4.8 20.9 0.00 0.00 0.00 85 1004.2
20260505121037 22 158 4.8 16.1 0.00 0.00 0.00 85 1003.9
20260505120534 22 199 6.4 16.1 0.00 0.00 0.00 85 1004.0
20260505120029 22 149 4.8 16.1 0.00 0.00 0.00 85 1004.1
20260505115524 21 151 9.7 14.5 0.00 0.00 0.00 85 1003.9
20260505115022 22 132 4.8 16.1 0.00 0.00 0.00 85 1004.0
20260505114519 22 168 6.4 16.1 0.00 0.00 0.00 85 1003.8
20260505114015 21 171 4.8 16.1 0.00 0.00 0.00 85 1004.0
20260505113512 21 175 6.4 12.9 0.00 0.00 0.00 85 1004.0
20260505113008 21 184 6.4 22.5 0.00 0.00 0.00 85 1003.9
20260505112504 21 197 8.0 20.9 0.00 0.00 0.00 85 1003.9
20260505112002 21 198 4.8 11.3 0.00 0.00 0.00 85 1004.0
20260505111456 21 151 11.3 27.4 0.00 0.00 0.00 85 1004.0
20260505110952 21 178 6.4 14.5 0.00 0.00 0.00 85 1003.8
20260505110449 21 155 3.2 14.5 0.00 0.00 0.00 85 1004.0
20260505101921 21 163 8.0 22.5 0.00 0.00 0.00 85 1004.0
20260505101421 21 147 11.3 24.1 0.00 0.00 0.00 85 1004.1
20260505100916 21 168 8.0 20.9 0.00 0.00 0.00 85 1004.0
20260505100414 21 160 12.9 20.9 0.00 0.00 0.00 85 1003.9
20260505095909 21 152 14.5 16.1 0.00 0.00 0.00 85 1004.0
20260505095406 21 150 11.3 19.3 0.00 0.00 0.00 85 1004.1
20260505094902 22 146 14.5 19.3 0.00 0.00 0.00 85 1004.1
20260505094400 22 136 6.4 20.9 0.00 0.00 0.00 84 1004.5
20260505093855 22 178 8.0 16.1 0.00 0.00 0.00 84 1004.2
20260505093353 22 161 12.9 16.1 0.00 0.00 0.00 84 1004.5
20260505092850 21 165 4.8 16.1 0.00 0.00 0.00 84 1004.5
20260505092348 22 201 6.4 16.1 0.00 0.00 0.00 84 1004.5
20260505091845 21 148 6.4 17.7 0.00 0.00 0.00 84 1004.5
20260505091343 21 206 9.7 12.9 0.00 0.00 0.00 84 1004.3
20260505090841 21 161 6.4 17.7 0.00 0.00 0.00 85 1004.2
20260505090339 21 160 6.4 14.5 0.00 0.00 0.00 84 1004.3
20260505085835 21 166 8.0 19.3 0.00 0.00 0.00 84 1004.5
20260505085333 21 180 9.7 16.1 0.00 0.00 0.00 84 1004.6
20260505084831 21 148 8.0 20.9 0.00 0.00 0.00 84 1004.5
20260505084329 21 163 12.9 20.9 0.00 0.00 0.00 84 1004.3
20260505083826 21 180 11.3 17.7 0.00 0.00 0.00 85 1004.5
20260505083324 21 168 6.4 24.1 0.00 0.00 0.00 85 1004.5
20260505082820 21 159 16.1 24.1 0.00 0.00 0.00 85 1004.5
20260505082316 21 208 3.2 17.7 0.00 0.00 0.00 85 1004.7
20260505081813 21 149 14.5 24.1 0.00 0.00 0.00 85 1004.3
20260505081310 21 192 6.4 32.2 0.00 0.00 0.00 85 1004.3
20260505080806 21 147 8.0 20.9 0.00 0.00 0.00 84 1004.5
20260505080302 21 160 9.7 25.7 0.00 0.00 0.00 84 1004.8
20260505075758 21 151 11.3 20.9 0.00 0.00 0.00 85 1004.9
20260505075255 21 170 6.4 24.1 0.00 0.00 0.00 85 1004.9
20260505074752 21 147 17.7 20.9 0.00 0.00 0.00 85 1004.9
20260505074249 21 165 9.7 19.3 0.00 0.00 0.00 85 1005.0
20260505073747 21 170 9.7 14.5 0.00 0.00 0.00 85 1005.2
20260505073245 21 149 11.3 22.5 0.00 0.00 0.00 85 1005.1
20260505072741 21 148 16.1 19.3 0.00 0.00 0.00 85 1005.1
20260505072237 21 176 9.7 25.7 0.00 0.00 0.00 85 1005.1
20260505071733 21 148 12.9 20.9 0.00 0.00 0.00 84 1005.1
20260505071230 21 163 9.7 19.3 0.00 0.00 0.00 84 1005.3
20260505070728 21 153 6.4 16.1 0.00 0.00 0.00 84 1005.5
20260505070224 21 145 9.7 19.3 0.00 0.00 0.00 84 1005.5
20260505065720 21 153 12.9 16.1 0.00 0.00 0.00 83 1005.3
20260505065217 21 183 4.8 17.7 0.00 0.00 0.00 83 1005.5
20260505064714 21 168 3.2 17.7 0.00 0.00 0.00 83 1005.4
20260505064212 21 157 11.3 19.3 0.00 0.00 0.00 84 1005.6
20260505063709 21 152 8.0 19.3 0.00 0.00 0.00 83 1005.6
20260505063205 22 149 22.5 24.1 0.00 0.00 0.00 83 1005.5
20260505062701 22 156 9.7 19.3 0.00 0.00 0.00 83 1005.5
20260505062159 22 145 8.0 30.6 0.00 0.00 0.00 83 1005.4
20260505061656 22 167 16.1 27.4 0.00 0.00 0.00 83 1005.5
20260505061154 22 153 16.1 20.9 0.00 0.00 0.00 82 1005.5
20260505060651 22 171 6.4 22.5 0.00 0.00 0.00 82 1005.9
20260505060147 22 161 8.0 22.5 0.00 0.00 0.00 82 1005.8
20260505055643 22 148 12.9 22.5 0.00 0.00 0.00 82 1006.0
20260505055140 22 151 17.7 24.1 0.00 0.00 0.00 81 1005.8
20260505054637 22 151 20.9 24.1 0.00 0.00 0.00 81 1005.8
20260505054135 22 157 11.3 24.1 0.00 0.00 0.00 81 1005.8
20260505053632 22 145 16.1 19.3 0.00 0.00 0.00 81 1006.0
20260505053128 22 161 9.7 22.5 0.00 0.00 0.00 81 1006.1
20260505052626 22 155 16.1 25.7 0.00 0.00 0.00 81 1006.1
20260505052123 22 153 14.5 24.1 0.00 0.00 0.00 81 1006.0
20260505051620 22 147 27.4 27.4 0.00 0.00 0.00 80 1006.0
20260505051118 22 145 11.3 24.1 0.00 0.00 0.00 80 1006.2
20260505050615 22 146 17.7 24.1 0.00 0.00 0.00 79 1006.0
20260505050114 22 148 20.9 27.4 0.00 0.00 0.00 79 1006.1
20260505041543 22 149 17.7 25.7 0.00 0.00 0.00 77 1006.5
20260505041041 22 149 12.9 22.5 0.00 0.00 0.00 76 1006.5
20260505040538 22 161 9.7 25.7 0.00 0.00 0.00 76 1006.7
20260505040035 22 149 16.1 24.1 0.00 0.00 0.00 76 1006.4
20260505035531 23 150 17.7 27.4 0.00 0.00 0.00 76 1006.3
20260505035028 22 154 14.5 22.5 0.00 0.00 0.00 76 1006.5
20260505034524 23 148 19.3 24.1 0.00 0.00 0.00 76 1006.3
20260505034021 23 170 11.3 27.4 0.00 0.00 0.00 76 1006.2
20260505033518 22 167 14.5 24.1 0.00 0.00 0.00 76 1006.3
20260505033016 23 151 16.1 22.5 0.00 0.00 0.00 76 1006.4
20260505032514 23 144 14.5 22.5 0.00 0.00 0.00 76 1006.2
20260505032010 23 168 9.7 20.9 0.00 0.00 0.00 75 1006.2
20260505031508 23 152 12.9 24.1 0.00 0.00 0.00 75 1006.3
20260505031004 23 155 12.9 20.9 0.00 0.00 0.00 75 1006.2
20260505030501 23 144 19.3 24.1 0.00 0.00 0.00 74 1006.4
20260505025955 23 154 17.7 20.9 0.00 0.00 0.00 74 1006.4
20260505025453 23 144 11.3 24.1 0.00 0.00 0.00 74 1006.3
20260505024952 23 151 14.5 25.7 0.00 0.00 0.00 74 1006.2
20260505024448 23 155 11.3 19.3 0.00 0.00 0.00 74 1006.5
20260505023946 23 147 19.3 24.1 0.00 0.00 0.00 74 1006.3
20260505023442 23 151 17.7 20.9 0.00 0.00 0.00 74 1006.1
20260505022940 23 151 17.7 22.5 0.00 0.00 0.00 74 1005.9
20260505022437 23 144 20.9 20.9 0.00 0.00 0.00 73 1006.2
20260505021934 23 164 11.3 17.7 0.00 0.00 0.00 74 1006.4
20260505021431 23 154 14.5 16.1 0.00 0.00 0.00 73 1006.2
20260505020926 23 162 12.9 19.3 0.00 0.00 0.00 73 1006.0
20260505020422 23 149 16.1 17.7 0.00 0.00 0.00 73 1006.1
20260505015919 23 150 14.5 20.9 0.00 0.00 0.00 73 1005.9
20260505015416 23 154 11.3 20.9 0.00 0.00 0.00 73 1006.1
20260505014914 23 151 17.7 19.3 0.00 0.00 0.00 73 1006.1
20260505014410 23 145 12.9 17.7 0.00 0.00 0.00 72 1006.2
20260505013907 23 148 11.3 17.7 0.00 0.00 0.00 72 1006.3
20260505013404 23 152 11.3 20.9 0.00 0.00 0.00 72 1006.2
20260505012902 23 150 11.3 20.9 0.00 0.00 0.00 72 1006.2
20260505012400 23 149 6.4 24.1 0.00 0.00 0.00 72 1005.9
20260505011856 23 153 11.3 19.3 0.00 0.00 0.00 72 1006.0
20260505011353 23 151 19.3 22.5 0.00 0.00 0.00 72 1006.0
20260505010849 23 148 17.7 24.1 0.00 0.00 0.00 71 1006.1
20260505010345 23 146 12.9 19.3 0.00 0.00 0.00 71 1006.1
20260505005841 23 146 14.5 24.1 0.00 0.00 0.00 71 1005.9
20260505005338 23 162 12.9 22.5 0.00 0.00 0.00 71 1006.3
20260505004836 23 156 12.9 20.9 0.00 0.00 0.00 70 1006.2
20260505004332 23 149 17.7 20.9 0.00 0.00 0.00 69 1006.2
20260505003829 24 144 14.5 19.3 0.00 0.00 0.00 70 1006.2
20260505003326 24 155 16.1 24.1 0.00 0.00 0.00 69 1006.1
20260505002822 24 152 11.3 20.9 0.00 0.00 0.00 68 1006.1
20260505002319 25 173 11.3 19.3 0.00 0.00 0.00 67 1006.1
20260505001818 25 147 4.8 16.1 0.00 0.00 0.00 65 1006.3
20260505001314 25 164 11.3 14.5 0.00 0.00 0.00 65 1006.3
20260505000812 25 157 6.4 17.7 0.00 0.00 0.00 64 1006.2
20260505000310 25 194 4.8 14.5 0.00 0.00 0.00 64 1006.2
20260504235806 25 158 6.4 17.7 0.00 0.00 0.00 63 1006.3
20260504235304 25 196 8.0 12.9 0.00 0.00 0.00 63 1006.3
20260504234759 25 167 8.0 17.7 0.00 0.00 0.00 63 1006.6
20260504234257 25 159 6.4 14.5 0.00 0.00 0.00 62 1006.4
20260504233753 25 181 6.4 16.1 0.00 0.00 0.00 62 1006.3
20260504233249 25 154 8.0 12.9 0.00 0.00 0.00 63 1006.3
20260504232746 25 182 8.0 16.1 0.00 0.00 0.00 63 1006.5
20260504232243 25 153 11.3 22.5 0.00 0.00 0.00 65 1006.3
20260504231740 25 158 6.4 17.7 0.00 0.00 0.00 62 1006.8
20260504231236 25 159 6.4 22.5 0.00 0.00 0.00 61 1006.7
20260504230732 26 153 12.9 17.7 0.00 0.00 0.00 62 1006.6
20260504230231 26 175 9.7 17.7 0.00 0.00 0.00 61 1006.9
20260504225729 26 179 6.4 16.1 0.00 0.00 0.00 60 1006.9
20260504225225 26 178 6.4 20.9 0.00 0.00 0.00 60 1007.0
20260504224722 26 148 1.6 20.9 0.00 0.00 0.00 61 1006.9
20260504224220 25 160 14.5 17.7 0.00 0.00 0.00 62 1006.9
20260504223716 25 147 11.3 20.9 0.00 0.00 0.00 65 1006.7
20260504223211 25 146 14.5 24.1 0.00 0.00 0.00 64 1006.7
20260504222709 25 147 11.3 19.3 0.00 0.00 0.00 64 1006.8
20260504222206 25 150 8.0 16.1 0.00 0.00 0.00 64 1006.8
20260504221703 25 151 12.9 20.9 0.00 0.00 0.00 62 1007.0
20260504221200 26 150 8.0 16.1 0.00 0.00 0.00 60 1007.2
20260504220656 26 151 9.7 16.1 0.00 0.00 0.00 61 1007.2
20260504220154 25 151 14.5 22.5 0.00 0.00 0.00 63 1007.1
20260504215650 26 142 14.5 27.4 0.00 0.00 0.00 62 1007.3
20260504215148 26 147 17.7 17.7 0.00 0.00 0.00 59 1007.3
20260504214643 26 162 3.2 17.7 0.00 0.00 0.00 60 1007.3
20260504214140 25 154 11.3 17.7 0.00 0.00 0.00 62 1007.5
20260504213637 25 154 11.3 20.9 0.00 0.00 0.00 65 1007.4
20260504213133 25 147 19.3 27.4 0.00 0.00 0.00 62 1007.6
20260504212630 26 151 12.9 20.9 0.00 0.00 0.00 61 1007.5
20260504212127 25 179 8.0 17.7 0.00 0.00 0.00 61 1007.9
20260504211624 25 168 14.5 22.5 0.00 0.00 0.00 61 1007.8
20260504211120 25 177 4.8 14.5 0.00 0.00 0.00 60 1008.0
20260504210618 25 163 6.4 20.9 0.00 0.00 0.00 62 1008.0
20260504210114 26 157 14.5 17.7 0.00 0.00 0.00 60 1008.2
20260504205612 25 160 14.5 20.9 0.00 0.00 0.00 62 1008.2
20260504205110 25 144 11.3 19.3 0.00 0.00 0.00 61 1008.3
20260504204608 25 149 14.5 20.9 0.00 0.00 0.00 60 1008.6
20260504204106 25 167 9.7 19.3 0.00 0.00 0.00 59 1008.6
20260504203605 25 152 17.7 24.1 0.00 0.00 0.00 60 1008.6
20260504203102 25 154 8.0 19.3 0.00 0.00 0.00 61 1008.8
20260504202556 25 150 20.9 25.7 0.00 0.00 0.00 60 1008.8
20260504202054 25 171 8.0 20.9 0.00 0.00 0.00 57 1009.0
20260504201551 25 175 8.0 24.1 0.00 0.00 0.00 57 1009.2
20260504201049 25 146 17.7 25.7 0.00 0.00 0.00 58 1009.2
20260504200544 25 147 20.9 27.4 0.00 0.00 0.00 58 1009.4
20260504200042 25 152 14.5 27.4 0.00 0.00 0.00 57 1009.5
20260504195537 25 159 9.7 16.1 0.00 0.00 0.00 60 1009.5
20260504195034 25 152 14.5 19.3 0.00 0.00 0.00 59 1009.5
20260504194531 25 155 9.7 20.9 0.00 0.00 0.00 57 1009.7